Washington, NC

11:24 PM EST on December 12, 2017 (GMT -0500)
Warren

Weather History for KOCW - December, 2013

Change the Weather History Date:

Saturday, December 21, 2013

  Actual Average (KPGV) Record (KPGV)
Temperature  
Mean Temperature 62 °F -  
Max Temperature 74 °F 55 °F 73 °F (2013)
Min Temperature 50 °F 33 °F 3 °F (1997)
Degree Days  
Heating Degree Days 3    
Growing Degree Days 12 (Base 50)    
Moisture  
Dew Point 58 °F    
Average Humidity 83    
Maximum Humidity 86    
Minimum Humidity 74    
Precipitation  
Precipitation 0.01 in - - ()
Sea Level Pressure  
Sea Level Pressure 30.15 in    
Wind  
Wind Speed 3 mph (South)    
Max Wind Speed 10 mph    
Max Gust Speed -    
Visibility 8 miles    
Events      
Averages and records for this station are not official NWS values.
T = Trace of Precipitation, MM = Missing Value Source: NWS Daily Summary

Daily Weather History Graph

Daily Weather History Graph

Search for Another Location

Airport or City:

Trip Planner

Search our weather history database for the weather conditions in past years. The results will help you decide how hot, cold, wet, or windy it might be!

Date:

Astronomy

Dec. 21, 2013 Rise Set
Actual Time 7:13 AM EST 4:59 PM EST
Civil Twilight 6:45 AM EST 5:27 PM EST
Nautical Twilight 6:13 AM EST 5:59 PM EST
Astronomical Twilight 5:42 AM EST 6:30 PM EST
Moon 9:05 PM EST (12/21) 9:45 AM EST (12/21)
Length of Visible Light 10h 41m
Length of Day
9h 45m
Waning Gibbous, 84% of the Moon is Illuminated
Dec 21
Waning Gibbous
Dec 25
Last Quarter
Jan 1
New
Jan 7
First Quarter
Jan 15
Full

Hourly Weather History & Observations

Time (EST) Temp. Dew Point Humidity Pressure Visibility Wind Dir Wind Speed Gust Speed Precip Events Conditions
12:15 AM 58.1 °F 53.6 °F 85% 30.18 in 10.0 mi South 3.5 mph - N/A   Clear
12:35 AM 58.1 °F 53.6 °F 85% 30.18 in 10.0 mi Calm Calm - N/A   Scattered Clouds
12:55 AM 58.1 °F 53.6 °F 85% 30.18 in 10.0 mi South 3.5 mph - N/A   Mostly Cloudy
1:15 AM 58.1 °F 53.6 °F 85% 30.18 in 10.0 mi Calm Calm - N/A   Mostly Cloudy
1:35 AM 58.1 °F 53.6 °F 85% 30.18 in 10.0 mi Calm Calm - N/A   Scattered Clouds
1:55 AM 58.1 °F 53.6 °F 85% 30.18 in 10.0 mi Calm Calm - N/A   Clear
2:15 AM 58.1 °F 53.6 °F 85% 30.18 in 10.0 mi Calm Calm - N/A   Scattered Clouds
2:35 AM 58.1 °F 53.6 °F 85% 30.18 in 10.0 mi Calm Calm - N/A   Scattered Clouds
2:55 AM 58.1 °F 53.6 °F 85% 30.18 in 10.0 mi Calm Calm - N/A   Scattered Clouds
3:15 AM 58.1 °F 53.6 °F 85% 30.17 in 10.0 mi Calm Calm - N/A   Scattered Clouds
3:35 AM 53.6 °F 49.1 °F 85% 30.16 in 5.0 mi Calm Calm - N/A   Clear
3:55 AM 53.4 °F 48.9 °F 85% 30.16 in 0.5 mi Calm Calm - N/A   Unknown
4:15 AM 52.7 °F 48.4 °F 85% 30.16 in 0.5 mi Calm Calm - N/A   Unknown
4:35 AM 52.7 °F 48.4 °F 85% 30.16 in 7.0 mi Calm Calm - N/A   Clear
4:55 AM 52.7 °F 48.4 °F 85% 30.16 in 2.0 mi Calm Calm - N/A   Scattered Clouds
5:15 AM 52.7 °F 48.4 °F 85% 30.16 in 1.8 mi Calm Calm - N/A   Unknown
5:35 AM 52.7 °F 48.4 °F 85% 30.16 in 0.2 mi Calm Calm - N/A   Mostly Cloudy
5:55 AM 52.7 °F 48.4 °F 85% 30.16 in 0.5 mi Calm Calm - N/A   Mostly Cloudy
6:15 AM 52.7 °F 48.4 °F 85% 30.17 in 0.5 mi Calm Calm - N/A   Unknown
6:35 AM 50.9 °F 46.8 °F 86% 30.18 in 0.2 mi Calm Calm - N/A   Unknown
6:55 AM 50.0 °F 45.7 °F 85% 30.18 in 0.2 mi SSE 3.5 mph - N/A   Mostly Cloudy
7:15 AM 52.5 °F 48.2 °F 85% 30.19 in 0.2 mi SSE 3.5 mph - N/A   Unknown
7:35 AM 52.7 °F 48.4 °F 85% 30.19 in 0.2 mi Calm Calm - N/A   Unknown
7:55 AM 52.7 °F 48.4 °F 85% 30.19 in 1.2 mi Calm Calm - N/A   Unknown
8:15 AM 55.4 °F 50.9 °F 85% 30.19 in 7.0 mi Calm Calm - N/A   Clear
8:35 AM 58.1 °F 53.6 °F 85% 30.19 in 10.0 mi South 3.5 mph - N/A   Clear
8:55 AM 58.1 °F 53.6 °F 85% 30.19 in 10.0 mi South 4.6 mph - N/A   Clear
9:15 AM 58.5 °F 54.0 °F 85% 30.19 in 10.0 mi South 3.5 mph - N/A   Clear
9:35 AM 60.4 °F 55.8 °F 85% 30.19 in 10.0 mi Calm Calm - N/A   Clear
9:55 AM 62.6 °F 57.9 °F 85% 30.19 in 10.0 mi South 3.5 mph - N/A   Clear
10:15 AM 64.0 °F 59.2 °F 84% 30.19 in 10.0 mi South 3.5 mph - N/A   Clear
10:35 AM 66.6 °F 61.5 °F 84% 30.19 in 10.0 mi SSW 5.8 mph - N/A   Clear
10:55 AM 67.1 °F 62.1 °F 84% 30.19 in 10.0 mi SSW 4.6 mph - N/A   Clear
11:15 AM 68.0 °F 62.6 °F 83% 30.18 in 10.0 mi SSW 8.1 mph - N/A   Clear
11:35 AM 70.7 °F 64.4 °F 80% 30.17 in 10.0 mi SSW 8.1 mph - N/A   Clear
11:55 AM 73.0 °F 66.4 °F 80% 30.16 in 10.0 mi SW 6.9 mph - N/A   Clear
12:15 PM 73.0 °F 66.4 °F 80% 30.16 in 10.0 mi SSW 6.9 mph - N/A   Clear
12:35 PM 73.0 °F 66.0 °F 79% 30.15 in 10.0 mi South 6.9 mph - N/A   Clear
12:55 PM 73.0 °F 65.8 °F 78% 30.14 in 10.0 mi South 6.9 mph - N/A   Scattered Clouds
1:15 PM 73.0 °F 65.7 °F 78% 30.13 in 10.0 mi South 6.9 mph - N/A   Scattered Clouds
1:35 PM 73.0 °F 64.8 °F 75% 30.13 in 10.0 mi South 5.8 mph - N/A   Clear
1:55 PM 73.2 °F 64.4 °F 74% 30.12 in 10.0 mi SSW 10.4 mph - N/A   Clear
2:15 PM 73.0 °F 64.9 °F 76% 30.12 in 10.0 mi South 6.9 mph - N/A   Scattered Clouds
2:35 PM 74.1 °F 65.8 °F 75% 30.11 in 10.0 mi South 6.9 mph - N/A   Scattered Clouds
2:55 PM 73.2 °F 65.3 °F 76% 30.11 in 10.0 mi South 8.1 mph - N/A   Clear
3:15 PM 73.0 °F 65.7 °F 78% 30.11 in 10.0 mi SSE 4.6 mph - N/A   Clear
3:35 PM 73.0 °F 66.2 °F 79% 30.11 in 10.0 mi SSE 4.6 mph - N/A   Clear
3:55 PM 73.0 °F 66.4 °F 80% 30.12 in 10.0 mi SSE 5.8 mph - N/A   Clear
4:15 PM 73.0 °F 67.1 °F 82% 30.12 in 10.0 mi SSE 5.8 mph - N/A   Clear
4:35 PM 73.0 °F 67.6 °F 83% 30.12 in 10.0 mi SSE 4.6 mph - N/A   Clear
4:55 PM 71.1 °F 66.0 °F 84% 30.11 in 10.0 mi SSE 5.8 mph - N/A   Clear
5:15 PM 70.7 °F 65.7 °F 84% 30.11 in 10.0 mi SSE 5.8 mph - N/A   Clear
5:35 PM 70.7 °F 65.7 °F 84% 30.12 in 10.0 mi SSE 5.8 mph - N/A   Clear
5:55 PM 68.5 °F 63.7 °F 84% 30.12 in 10.0 mi SSE 5.8 mph - N/A   Clear
6:15 PM 68.0 °F 63.5 °F 85% 30.13 in 10.0 mi South 4.6 mph - N/A   Clear
6:35 PM 68.0 °F 63.5 °F 85% 30.13 in 10.0 mi South 4.6 mph - N/A   Scattered Clouds
6:55 PM 67.5 °F 62.8 °F 85% 30.13 in 10.0 mi SSE 6.9 mph - N/A   Clear
7:15 PM 66.7 °F 62.1 °F 85% 30.13 in 10.0 mi SSE 6.9 mph - N/A   Scattered Clouds
7:35 PM 66.2 °F 61.5 °F 85% 30.13 in 10.0 mi SSE 5.8 mph - N/A   Clear
7:55 PM 66.4 °F 61.9 °F 85% 30.14 in 10.0 mi SSE 6.9 mph - N/A   Clear
8:15 PM 66.2 °F 61.3 °F 84% 30.14 in 10.0 mi SSE 6.9 mph - N/A   Clear
8:35 PM 66.2 °F 61.3 °F 84% 30.14 in 10.0 mi South 5.8 mph - N/A   Clear
8:55 PM 65.8 °F 61.2 °F 85% 30.14 in 10.0 mi South 5.8 mph - N/A   Clear
9:15 PM 65.7 °F 61.0 °F 85% 30.14 in 10.0 mi South 6.9 mph - N/A   Clear
9:35 PM 65.7 °F 61.0 °F 85% 30.13 in 10.0 mi South 5.8 mph - N/A   Clear
9:55 PM 65.5 °F 60.8 °F 85% 30.13 in 10.0 mi South 4.6 mph - N/A   Clear
10:15 PM 65.5 °F 60.8 °F 85% 30.13 in 10.0 mi South 4.6 mph - N/A   Clear
10:35 PM 65.7 °F 61.0 °F 85% 30.13 in 10.0 mi South 5.8 mph - N/A   Clear
10:55 PM 66.2 °F 61.3 °F 84% 30.12 in 10.0 mi South 4.6 mph - N/A   Clear
11:15 PM 66.7 °F 62.1 °F 85% 30.13 in 10.0 mi South 5.8 mph - N/A   Clear
11:35 PM 68.0 °F 63.5 °F 85% 30.13 in 10.0 mi SSW 8.1 mph - N/A   Clear
11:55 PM 68.0 °F 63.5 °F 85% 30.12 in 10.0 mi South 8.1 mph - N/A   Clear